York, NE

5:27 AM CDT on April 28, 2017 (GMT -0500)
York Municipal

Weather History for KJYR - February, 2014

Change the Weather History Date:

Thursday, February 27, 2014

  Actual Average Record
Temperature  
Mean Temperature 14 °F -  
Max Temperature 24 °F 48 °F 75 °F (2016)
Min Temperature 5 °F 26 °F -7 °F (1962)
Degree Days  
Heating Degree Days 50    
Moisture  
Dew Point 0 °F    
Average Humidity 52    
Maximum Humidity 79    
Minimum Humidity 30    
Precipitation  
Precipitation 0.00 in - - ()
Sea Level Pressure  
Sea Level Pressure 29.98 in    
Wind  
Wind Speed 11 mph (East)    
Max Wind Speed 17 mph    
Max Gust Speed 23 mph    
Visibility 10 miles    
Events      
Averages and records for this station are not official NWS values.
T = Trace of Precipitation, MM = Missing Value Source: NWS Daily Summary

Daily Weather History Graph

Daily Weather History Graph

Search for Another Location

Airport or City:

Trip Planner

Search our weather history database for the weather conditions in past years. The results will help you decide how hot, cold, wet, or windy it might be!

Date:

Astronomy

Feb. 27, 2014 Rise Set
Actual Time 7:07 AM CST 6:19 PM CST
Civil Twilight 6:39 AM CST 6:46 PM CST
Nautical Twilight 6:08 AM CST 7:18 PM CST
Astronomical Twilight 5:36 AM CST 7:50 PM CST
Moon 5:41 AM CST (2/27) 4:46 PM CST (2/27)
Length of Visible Light 12h 07m
Length of Day
11h 11m
Waning Crescent, 4% of the Moon is Illuminated
Feb 27
Waning Crescent
Mar 1
New
Mar 8
First Quarter
Mar 16
Full
Mar 23
Last Quarter

Hourly Weather History & Observations

Time (CST) Temp. Windchill Dew Point Humidity Pressure Visibility Wind Dir Wind Speed Gust Speed Precip Events Conditions
12:15 AM 17.6 °F 5.0 °F 8.6 °F 68% 29.99 in 10.0 mi WNW 11.5 mph - N/A   Clear
12:35 AM 17.6 °F 5.7 °F 10.4 °F 73% 30.00 in 10.0 mi NW 10.4 mph - N/A   Clear
12:55 AM 17.6 °F 7.3 °F 8.6 °F 68% 30.01 in 10.0 mi NW 8.1 mph - N/A   Clear
1:15 AM 15.8 °F 7.2 °F 8.6 °F 73% 30.01 in 10.0 mi NNW 5.8 mph - N/A   Clear
1:35 AM 17.6 °F 7.3 °F 10.4 °F 73% 30.02 in 10.0 mi North 8.1 mph - N/A   Clear
1:55 AM 17.6 °F 5.7 °F 10.4 °F 73% 30.03 in 10.0 mi North 10.4 mph - N/A   Clear
2:15 AM 17.6 °F 5.7 °F 10.4 °F 73% 30.04 in 10.0 mi NNE 10.4 mph - N/A   Clear
2:35 AM 15.8 °F 2.1 °F 8.6 °F 73% 30.04 in 10.0 mi NNE 12.7 mph - N/A   Clear
2:55 AM 14.0 °F -0.2 °F 5.0 °F 67% 30.05 in 10.0 mi NNE 12.7 mph 18.4 mph N/A   Clear
3:15 AM 14.0 °F 0.5 °F 3.2 °F 62% 30.05 in 10.0 mi NNE 11.5 mph - N/A   Clear
3:35 AM 12.2 °F -1.0 °F 3.2 °F 67% 30.05 in 10.0 mi NNE 10.4 mph - N/A   Clear
3:55 AM 10.4 °F -4.1 °F 1.4 °F 67% 30.05 in 10.0 mi NNE 11.5 mph - N/A   Clear
4:15 AM 10.4 °F -4.1 °F 1.4 °F 67% 30.04 in 10.0 mi NNE 11.5 mph - N/A   Clear
4:35 AM 10.4 °F -4.1 °F 1.4 °F 67% 30.05 in 10.0 mi NNE 11.5 mph - N/A   Clear
4:55 AM 8.6 °F -7.0 °F 1.4 °F 73% 30.05 in 10.0 mi NNE 12.7 mph - N/A   Clear
5:15 AM 8.6 °F -5.5 °F 1.4 °F 73% 30.05 in 10.0 mi NNE 10.4 mph - N/A   Clear
5:35 AM 8.6 °F -3.7 °F 1.4 °F 73% 30.06 in 10.0 mi NNE 8.1 mph - N/A   Clear
5:55 AM 6.8 °F -2.0 °F -0.4 °F 72% 30.08 in 10.0 mi NNE 4.6 mph - N/A   Clear
6:15 AM 6.8 °F -0.1 °F -0.4 °F 72% 30.10 in 10.0 mi North 3.5 mph - N/A   Clear
6:35 AM 5.0 °F -6.9 °F -0.4 °F 78% 30.11 in 10.0 mi NNE 6.9 mph - N/A   Clear
6:55 AM 5.0 °F -8.1 °F -0.4 °F 78% 30.10 in 10.0 mi NE 8.1 mph - N/A   Clear
7:15 AM 5.0 °F -8.1 °F -0.4 °F 78% 30.09 in 10.0 mi NE 8.1 mph - N/A   Clear
7:35 AM 6.8 °F -2.0 °F -0.4 °F 72% 30.11 in 10.0 mi ENE 4.6 mph - N/A   Clear
7:55 AM 6.8 °F -5.9 °F 1.4 °F 79% 30.11 in 10.0 mi ENE 8.1 mph - N/A   Clear
8:15 AM 8.6 °F -4.7 °F 1.4 °F 73% 30.11 in 10.0 mi ENE 9.2 mph - N/A   Clear
8:35 AM 8.6 °F -6.3 °F 1.4 °F 73% 30.11 in 10.0 mi East 11.5 mph - N/A   Clear
8:55 AM 10.4 °F -4.8 °F 1.4 °F 67% 30.11 in 10.0 mi East 12.7 mph - N/A   Clear
9:15 AM 10.4 °F -4.8 °F 1.4 °F 67% 30.11 in 10.0 mi East 12.7 mph - N/A   Clear
9:35 AM 12.2 °F -1.8 °F 1.4 °F 62% 30.11 in 10.0 mi East 11.5 mph - N/A   Clear
9:55 AM 12.2 °F -2.5 °F 1.4 °F 62% 30.11 in 10.0 mi East 12.7 mph - N/A   Clear
10:15 AM 14.0 °F -0.2 °F 1.4 °F 57% 30.10 in 10.0 mi ESE 12.7 mph - N/A   Clear
10:35 AM 14.0 °F -0.8 °F 1.4 °F 57% 30.09 in 10.0 mi East 13.8 mph - N/A   Clear
10:55 AM 15.8 °F 2.1 °F -0.4 °F 49% 30.09 in 10.0 mi ESE 12.7 mph - N/A   Clear
11:15 AM 15.8 °F 2.1 °F -0.4 °F 49% 30.08 in 10.0 mi East 12.7 mph - N/A   Clear
11:35 AM 15.8 °F 1.4 °F -2.2 °F 45% 30.07 in 10.0 mi ESE 13.8 mph - N/A   Partly Cloudy
11:55 AM 17.6 °F 3.7 °F -4.0 °F 38% 30.05 in 10.0 mi East 13.8 mph 20.7 mph N/A   Mostly Cloudy
12:15 PM 17.6 °F 4.3 °F -4.0 °F 38% 30.05 in 10.0 mi ESE 12.7 mph - N/A   Mostly Cloudy
12:35 PM 17.6 °F 3.7 °F -5.8 °F 35% 30.04 in 10.0 mi East 13.8 mph 17.3 mph N/A   Overcast
12:55 PM 19.4 °F 10.4 °F -7.6 °F 30% 30.03 in 10.0 mi ESE 6.9 mph 16.1 mph N/A   Overcast
1:15 PM 19.4 °F 6.6 °F -7.6 °F 30% 30.01 in 10.0 mi ESE 12.7 mph - N/A   Overcast
1:35 PM 21.2 °F 8.9 °F -5.8 °F 30% 29.99 in 10.0 mi East 12.7 mph 19.6 mph N/A   Overcast
1:55 PM 21.2 °F 8.9 °F -5.8 °F 30% 29.98 in 10.0 mi SE 12.7 mph 18.4 mph N/A   Mostly Cloudy
2:15 PM 23.0 °F 11.7 °F -4.0 °F 31% 29.96 in 10.0 mi ESE 11.5 mph 17.3 mph N/A   Mostly Cloudy
2:35 PM 23.0 °F 11.1 °F -4.0 °F 31% 29.96 in 10.0 mi East 12.7 mph - N/A   Mostly Cloudy
2:55 PM 24.8 °F 14.6 °F -2.2 °F 31% 29.95 in 10.0 mi ESE 10.4 mph - N/A   Mostly Cloudy
3:15 PM 24.8 °F 12.9 °F -0.4 °F 34% 29.94 in 10.0 mi SE 13.8 mph - N/A   Mostly Cloudy
3:35 PM 24.8 °F 14.0 °F -0.4 °F 34% 29.93 in 10.0 mi ESE 11.5 mph - N/A   Mostly Cloudy
3:55 PM 24.8 °F 12.4 °F -2.2 °F 31% 29.93 in 10.0 mi ESE 15.0 mph 18.4 mph N/A   Partly Cloudy
4:15 PM 24.8 °F 12.4 °F -2.2 °F 31% 29.92 in 10.0 mi SE 15.0 mph - N/A   Clear
4:35 PM 24.8 °F 12.4 °F -2.2 °F 31% 29.91 in 10.0 mi SE 15.0 mph 18.4 mph N/A   Clear
4:55 PM 24.8 °F 11.5 °F -2.2 °F 31% 29.90 in 10.0 mi SSE 17.3 mph 23.0 mph N/A   Clear
5:15 PM 24.8 °F 12.9 °F -2.2 °F 31% 29.90 in 10.0 mi SE 13.8 mph 19.6 mph N/A   Clear
5:35 PM 23.0 °F 10.6 °F -2.2 °F 33% 29.91 in 10.0 mi SE 13.8 mph - N/A   Clear
5:55 PM 23.0 °F 10.6 °F -2.2 °F 33% 29.90 in 10.0 mi SE 13.8 mph - N/A   Clear
6:15 PM 21.2 °F 9.5 °F -2.2 °F 36% 29.90 in 10.0 mi SE 11.5 mph 17.3 mph N/A   Clear
6:35 PM 19.4 °F 7.2 °F -2.2 °F 39% 29.89 in 10.0 mi ESE 11.5 mph - N/A   Clear
6:55 PM 19.4 °F 7.2 °F -0.4 °F 42% 29.89 in 10.0 mi ESE 11.5 mph - N/A   Clear
7:15 PM 19.4 °F 7.2 °F -0.4 °F 42% 29.88 in 10.0 mi ESE 11.5 mph - N/A   Mostly Cloudy
7:35 PM 19.4 °F 5.5 °F -0.4 °F 42% 29.88 in 10.0 mi ESE 15.0 mph - N/A   Mostly Cloudy
7:55 PM 19.4 °F 5.0 °F -0.4 °F 42% 29.87 in 10.0 mi ESE 16.1 mph 20.7 mph N/A   Partly Cloudy
8:15 PM 19.4 °F 6.0 °F -2.2 °F 39% 29.85 in 10.0 mi ESE 13.8 mph - N/A   Clear
8:35 PM 17.6 °F 3.2 °F -2.2 °F 42% 29.85 in 10.0 mi ESE 15.0 mph - N/A   Clear
8:55 PM 17.6 °F 3.7 °F -2.2 °F 42% 29.84 in 10.0 mi ESE 13.8 mph 20.7 mph N/A   Clear
9:15 PM 17.6 °F 4.3 °F -2.2 °F 42% 29.84 in 10.0 mi ESE 12.7 mph 20.7 mph N/A   Clear
9:35 PM 17.6 °F 4.3 °F -0.4 °F 45% 29.83 in 10.0 mi ESE 12.7 mph - N/A   Clear
9:55 PM 17.6 °F 2.7 °F -0.4 °F 45% 29.82 in 10.0 mi SE 16.1 mph - N/A   Clear
10:15 PM 17.6 °F 2.7 °F -0.4 °F 45% 29.82 in 10.0 mi ESE 16.1 mph 19.6 mph N/A   Clear
10:35 PM 17.6 °F 3.2 °F -0.4 °F 45% 29.81 in 10.0 mi ESE 15.0 mph - N/A   Partly Cloudy
10:55 PM 17.6 °F 3.2 °F -0.4 °F 45% 29.80 in 10.0 mi SE 15.0 mph - N/A   Partly Cloudy
11:15 PM 17.6 °F 3.7 °F -0.4 °F 45% 29.80 in 10.0 mi SE 13.8 mph - N/A   Scattered Clouds
11:35 PM 17.6 °F 3.7 °F -0.4 °F 45% 29.79 in 10.0 mi SE 13.8 mph - N/A   Scattered Clouds
11:55 PM 17.6 °F 3.2 °F -0.4 °F 45% 29.78 in 10.0 mi SE 15.0 mph - N/A   Mostly Cloudy